This is the latest recevied weather packets stored in our database for station/object K9APR. If no packets are shown the sender has not sent any weather packets the latest 10 day(s).
| Time | Temp. | Humidity | Pressure | Rain* | Wind** | Luminosity | Snow |
|---|---|---|---|---|---|---|---|
| 1778110162 | 12.78° C | 60% | 1014.5 hPa | 0 mm | - | - | - |
| 1778109623 | 12.78° C | 62% | 1014.5 hPa | 0 mm | - | - | - |
| 1778109082 | 12.78° C | 64% | 1014.5 hPa | 0 mm | - | - | - |
| 1778108545 | 12.22° C | 65% | 1014.5 hPa | 0 mm | - | - | - |
| 1778108002 | 12.22° C | 65% | 1014.6 hPa | 0 mm | - | - | - |
| 1778107464 | 12.22° C | 64% | 1014.6 hPa | 0 mm | - | - | - |
| 1778106923 | 12.22° C | 65% | 1014.9 hPa | 0 mm | - | - | - |
| 1778106383 | 12.22° C | 65% | 1015 hPa | 0 mm | - | - | - |
| 1778105305 | 12.22° C | 64% | 1015 hPa | 0 mm | - | - | - |
| 1778104762 | 12.78° C | 64% | 1015 hPa | 0 mm | - | - | - |
| 1778104223 | 12.78° C | 61% | 1014.7 hPa | 0 mm | - | - | - |
| 1778103684 | 12.78° C | 62% | 1014.6 hPa | 0 mm | - | - | - |
| 1778102603 | 12.78° C | 59% | 1014.5 hPa | 0 mm | - | - | - |
| 1778102065 | 12.78° C | 61% | 1014.6 hPa | 0 mm | - | - | - |
| 1778101523 | 12.78° C | 56% | 1014.5 hPa | 0 mm | - | - | - |
| 1778100983 | 13.33° C | 62% | 1014.5 hPa | 0 mm | - | - | - |
| 1778100443 | 12.78° C | 58% | 1014.5 hPa | 0 mm | - | - | - |
| 1778099902 | 12.78° C | 58% | 1014.6 hPa | 0 mm | - | - | - |
| 1778099364 | 12.78° C | 57% | 1014.7 hPa | 0 mm | - | - | - |
| 1778098823 | 12.78° C | 61% | 1014.6 hPa | 0 mm | - | - | - |
| 1778098282 | 12.78° C | 61% | 1014.7 hPa | 0 mm | - | - | - |
| 1778097743 | 12.78° C | 58% | 1014.6 hPa | 0 mm | - | - | - |
| 1778097243 | 12.78° C | 62% | 1014.6 hPa | 0 mm | - | - | - |
| 1778097203 | 12.78° C | 62% | 1014.6 hPa | 0 mm | - | - | - |
| 1778096123 | 12.78° C | 61% | 1014.3 hPa | 0 mm | - | - | - |
* Rain latest hour (hover to see other rain measurements)
** Current wind speed in m/s (hover to see current wind gust speed)